Location: Altleiningen
(49.5078°N, 8.0741°E)
Time: 21:02:50
(UTC+00:00)

Meteor 1-23 Rocket - Pass Details

Date: 14 June 2025
Orbit: 838 x 885 km, 81.3° (Epoch: 16 July)

Event Time Altitude Azimuth Distance (km) Brightness Sun altitude
Exits shadow 21:35:31 - 194° (SSW) 2,497 6.2 -13.0°
Reaches altitude 10° 21:35:39 10° 194° (SSW) 2,450 6.2 -13.0°
Maximum altitude 21:41:12 82° 282° (WNW) 859 4.3 -13.4°
Drops below altitude 10° 21:46:52 10° 10° (N) 2,489 7.5 -13.8°
Sets 21:49:19 0° 12° (NNE) 3,436 8.3 -13.9°
